EW4824 Weather Reports


Display with metric or nautical units.
time (UTC)temp
F
wind
direction
speed
MPH
gust
MPH
rain 1hr
in
rain 24hr
in
rain mn
in
humidity
%
barometer
mb
20260507083708 56 28 0.0 5.0 0.00 0.43 0.00 45 1015.3
20260507083200 56 20 0.0 3.0 0.00 0.43 0.00 45 1015.5
20260507082701 56 19 0.0 3.0 0.00 0.43 0.00 45 1015.3
20260507082512 56 48 0.0 3.0 0.00 0.43 0.00 45 1015.2
20260507081705 56 44 0.0 5.0 0.00 0.43 0.00 44 1015.1
20260507081200 57 46 0.0 5.0 0.00 0.43 0.00 43 1015.3
20260507080704 57 63 0.0 1.0 0.00 0.43 0.00 43 1015.5
20260507080505 57 63 0.0 0.0 0.00 0.43 0.00 43 1015.6
20260507075701 57 64 0.0 0.0 0.00 0.43 0.00 44 1015.7
20260507075159 57 64 0.0 0.0 0.00 0.43 0.00 44 1015.8
20260507074958 57 64 0.0 0.0 0.00 0.43 0.00 44 1015.7
20260507074515 57 64 0.0 0.0 0.00 0.43 0.00 44 1015.6
20260507073654 57 64 0.0 0.0 0.00 0.43 0.00 44 1015.5
20260507073152 57 64 0.0 0.0 0.00 0.43 0.00 44 1015.4
20260507072649 57 64 0.0 0.0 0.00 0.43 0.00 43 1015.4
20260507072144 57 64 0.0 0.0 0.00 0.43 0.00 43 1015.3
20260507071637 57 64 0.0 0.0 0.00 0.43 0.00 43 1015.2
20260507071141 57 64 0.0 0.0 0.00 0.43 0.00 43 1015.2
20260507070409 57 64 0.0 5.0 0.00 0.43 0.00 43 1015.0
20260507065909 57 63 0.0 5.0 0.00 0.43 0.00 43 1014.5
20260507065054 57 40 0.0 2.0 0.00 0.43 0.00 42 1014.0
20260507064554 57 71 0.0 0.0 0.00 0.43 0.00 41 1014.0
20260507064053 57 71 0.0 0.0 0.00 0.43 0.00 41 1014.0
20260507063549 57 71 0.0 0.0 0.00 0.43 0.00 41 1014.1
20260507063054 57 71 0.0 0.0 0.00 0.43 0.00 40 1013.9
20260507062541 57 71 0.0 0.0 0.00 0.43 0.00 40 1013.8
20260507062040 57 49 0.0 0.0 0.00 0.43 0.00 40 1013.8
20260507061540 57 49 0.0 0.0 0.00 0.43 0.00 39 1013.6
20260507061001 57 49 0.0 1.0 0.00 0.43 0.00 39 1013.7
20260507060501 57 49 0.0 1.0 0.00 0.43 0.00 39 1013.9
20260507060323 57 40 0.0 1.0 0.00 0.43 0.00 39 1013.9
20260507055807 58 63 0.0 1.0 0.00 0.43 0.00 39 1014.1
20260507055007 58 63 0.0 1.0 0.00 0.43 0.00 39 1013.9
20260507054505 58 63 0.0 1.0 0.00 0.43 0.00 39 1013.9
20260507054003 58 63 0.0 0.0 0.00 0.43 0.00 39 1013.8
20260507053459 58 63 0.0 0.0 0.00 0.43 0.00 39 1013.9
20260507052957 58 63 0.0 0.0 0.00 0.43 0.00 39 1013.8
20260507052458 58 63 0.0 2.0 0.00 0.43 0.00 39 1013.9
20260507051956 58 63 0.0 2.0 0.00 0.43 0.00 39 1013.8
20260507051456 58 77 0.0 1.0 0.00 0.43 0.00 39 1013.9
20260507051302 58 77 0.0 1.0 0.00 0.43 0.00 40 1014.0
20260507050443 58 72 0.0 3.0 0.00 0.43 0.00 40 1014.0
20260507045936 58 74 0.0 3.0 0.00 0.43 0.43 41 1013.9
20260507045435 58 74 0.0 3.0 0.00 0.43 0.43 41 1013.9
20260507044936 58 72 0.0 0.0 0.00 0.43 0.43 41 1014.0
20260507044433 58 72 0.0 0.0 0.00 0.43 0.43 42 1014.0
20260507043931 58 72 0.0 0.0 0.00 0.43 0.43 42 1014.0
20260507043432 58 72 0.0 4.0 0.00 0.43 0.43 42 1014.1
20260507043234 58 72 1.0 4.0 0.00 0.43 0.43 43 1014.2
20260507042437 58 72 0.0 3.0 0.00 0.43 0.43 43 1014.2
20260507042246 58 60 0.0 3.0 0.00 0.43 0.43 44 1014.2
20260507041437 59 60 0.0 3.0 0.00 0.43 0.43 45 1014.2
20260507040932 59 60 0.0 0.0 0.00 0.43 0.43 46 1014.2
20260507040429 59 60 0.0 0.0 0.00 0.43 0.43 46 1014.1
20260507035930 59 60 0.0 0.0 0.00 0.43 0.43 47 1014.0
20260507035431 59 60 0.0 0.0 0.00 0.43 0.43 47 1013.9
20260507034929 59 60 0.0 1.0 0.00 0.43 0.43 47 1013.9
20260507034431 59 60 0.0 2.0 0.00 0.43 0.43 47 1013.9
20260507033920 59 60 1.0 3.0 0.00 0.43 0.43 48 1013.8
20260507033414 59 60 1.0 3.0 0.00 0.43 0.43 49 1013.6
20260507032912 59 60 1.0 3.0 0.00 0.43 0.43 50 1013.6
20260507032412 59 60 1.0 3.0 0.00 0.43 0.43 51 1013.5
20260507031911 59 60 1.0 3.0 0.00 0.43 0.43 52 1013.6
20260507031412 60 60 0.0 2.0 0.00 0.43 0.43 53 1013.6
20260507030913 60 60 0.0 2.0 0.00 0.43 0.43 53 1013.6
20260507030726 60 60 0.0 2.0 0.00 0.43 0.43 54 1013.5
20260507025916 60 60 0.0 1.0 0.00 0.43 0.43 54 1013.5
20260507025416 60 60 0.0 3.0 0.00 0.43 0.43 54 1013.4
20260507024916 60 60 0.0 3.0 0.00 0.43 0.43 54 1013.3
20260507024416 60 60 0.0 1.0 0.00 0.43 0.43 55 1013.2
20260507023911 60 60 1.0 3.0 0.00 0.43 0.43 56 1013.2
20260507023409 60 60 2.0 6.0 0.00 0.43 0.43 56 1013.1
20260507022909 60 75 3.0 7.0 0.00 0.43 0.43 57 1013.0
20260507022409 60 81 3.0 7.0 0.00 0.43 0.43 58 1012.9
20260507022221 60 71 2.0 5.0 0.00 0.43 0.43 60 1012.7
20260507021726 60 50 3.0 5.0 0.00 0.43 0.43 61 1012.7
20260507020907 61 103 3.0 5.0 0.00 0.43 0.43 62 1012.5
20260507020407 61 56 4.0 7.0 0.00 0.43 0.43 63 1012.4
20260507015908 61 71 4.0 9.0 0.00 0.43 0.43 64 1012.4
20260507015407 61 63 4.0 9.0 0.00 0.43 0.43 64 1012.3
20260507014908 62 32 3.0 6.0 0.00 0.43 0.43 63 1012.5
20260507014403 62 58 3.0 8.0 0.00 0.43 0.43 63 1012.7
20260507013902 62 28 4.0 8.0 0.00 0.43 0.43 64 1012.7
20260507013403 62 42 4.0 8.0 0.00 0.43 0.43 65 1012.4
20260507012903 62 38 4.0 8.0 0.00 0.43 0.43 65 1012.5
20260507012402 62 40 4.0 8.0 0.00 0.43 0.43 66 1012.7
20260507011903 62 34 4.0 9.0 0.00 0.43 0.43 66 1012.5
20260507011403 63 18 4.0 9.0 0.00 0.43 0.43 67 1012.5
20260507010903 63 56 2.0 9.0 0.00 0.43 0.43 67 1012.5
20260507010403 63 61 1.0 5.0 0.00 0.43 0.43 67 1012.4
20260507005904 63 32 2.0 5.0 0.00 0.43 0.43 68 1012.7
20260507005717 63 32 2.0 5.0 0.00 0.43 0.43 69 1012.5
20260507004903 64 38 2.0 5.0 0.00 0.43 0.43 70 1012.4
20260507004403 64 28 3.0 6.0 0.00 0.43 0.43 70 1012.1
20260507003902 64 35 4.0 9.0 0.00 0.43 0.43 70 1012.0
20260507003401 64 40 3.0 9.0 0.00 0.43 0.43 71 1011.8
20260507002903 65 16 3.0 6.0 0.00 0.43 0.43 71 1011.7
20260507002403 65 39 3.0 6.0 0.00 0.43 0.43 71 1011.6
20260507001901 65 46 3.0 6.0 0.00 0.43 0.43 72 1011.6
20260507001727 66 44 3.0 6.0 0.00 0.43 0.43 72 1011.5
20260507000907 66 45 4.0 7.0 0.00 0.43 0.43 72 1011.5
20260507000720 67 46 4.0 9.0 0.00 0.43 0.43 72 1011.5
20260506235901 67 41 4.0 9.0 0.00 0.43 0.43 72 1011.2
20260506235401 67 64 5.0 9.0 0.00 0.43 0.43 72 1011.3
20260506234901 67 24 5.0 9.0 0.00 0.43 0.43 72 1011.3
20260506234402 67 75 4.0 9.0 0.00 0.43 0.43 72 1011.2
20260506233902 67 43 4.0 9.0 0.00 0.43 0.43 72 1011.2
20260506233402 66 73 4.0 9.0 0.00 0.43 0.43 72 1011.3
20260506232903 66 51 5.0 8.0 0.00 0.43 0.43 72 1011.2
20260506232406 66 88 4.0 8.0 0.00 0.43 0.43 72 1011.3
20260506231905 67 53 4.0 9.0 0.00 0.43 0.43 72 1011.3
20260506231409 66 26 4.0 9.0 0.00 0.43 0.43 72 1011.2
20260506230905 67 76 3.0 8.0 0.00 0.43 0.43 72 1011.2
20260506230401 66 32 4.0 8.0 0.00 0.43 0.43 72 1011.3
20260506225902 66 63 5.0 8.0 0.00 0.43 0.43 72 1011.1
20260506225403 66 51 4.0 7.0 0.00 0.43 0.43 72 1011.2
20260506224902 66 35 3.0 7.0 0.00 0.43 0.43 72 1011.3
20260506224711 66 5 3.0 5.0 0.00 0.43 0.43 71 1011.4
20260506224219 66 16 3.0 7.0 0.00 0.43 0.43 71 1011.3
20260506223715 66 72 3.0 7.0 0.00 0.43 0.43 72 1011.3
20260506222900 65 36 3.0 8.0 0.00 0.43 0.43 71 1011.4
20260506222359 65 19 4.0 8.0 0.00 0.43 0.43 71 1011.3
20260506221856 65 18 4.0 9.0 0.00 0.43 0.43 70 1011.2
20260506221722 65 28 4.0 9.0 0.00 0.43 0.43 70 1011.3
20260506220902 65 46 4.0 9.0 0.00 0.43 0.43 71 1011.4
20260506220359 65 34 4.0 8.0 0.00 0.43 0.43 69 1011.5
20260506215854 64 16 4.0 8.0 0.00 0.43 0.43 69 1011.4
20260506215352 64 0 4.0 0.0 0.00 0.43 0.43 68 1011.4
20260506214800 64 20 4.0 8.0 0.00 0.43 0.43 70 1011.4
20260506214612 64 49 3.0 7.0 0.00 0.43 0.43 68 1011.5
20260506214122 63 321 3.0 7.0 0.00 0.43 0.43 66 1011.5
20260506213258 63 40 4.0 7.0 0.00 0.43 0.43 68 1011.5
20260506213253 63 50 3.0 7.0 0.00 0.43 0.43 66 1011.5
20260506212857 63 26 3.0 6.0 0.00 0.43 0.43 67 1011.6
20260506212123 62 43 4.0 7.0 0.00 0.43 0.43 66 1011.5
20260506211304 62 28 5.0 9.0 0.00 0.43 0.43 64 1011.4
20260506210756 62 11 5.0 9.0 0.00 0.43 0.43 65 1011.4
20260506210250 62 0 4.0 9.0 0.00 0.43 0.43 64 1011.6
20260506205747 62 15 4.0 0.0 0.00 0.43 0.43 62 1011.7
20260506205520 61 40 4.0 9.0 0.00 0.43 0.43 62 1011.8
20260506205018 61 23 5.0 9.0 0.00 0.43 0.43 62 1011.8
20260506204839 61 292 5.0 9.0 0.00 0.43 0.43 63 1011.9
20260506204012 61 348 5.0 10.0 0.00 0.43 0.43 64 1011.9
20260506203504 61 322 5.0 9.0 0.00 0.43 0.43 65 1011.9
20260506203002 61 347 5.0 9.0 0.00 0.43 0.43 64 1012.1
20260506202502 61 309 5.0 9.0 0.00 0.43 0.43 62 1012.2
20260506202002 61 327 5.0 10.0 0.00 0.43 0.43 60 1012.1
20260506201502 61 0 5.0 10.0 0.00 0.43 0.43 59 1012.4
20260506201003 60 15 6.0 10.0 0.00 0.43 0.43 59 1012.2
20260506200827 60 343 6.0 9.0 0.00 0.43 0.43 60 1012.3
20260506200004 60 346 5.0 9.0 0.00 0.43 0.43 58 1012.2
20260506195503 60 315 5.0 9.0 0.00 0.43 0.43 58 1012.4
20260506195007 60 331 5.0 9.0 0.00 0.43 0.43 55 1012.2
20260506194513 60 351 5.0 0.0 0.00 0.43 0.43 54 1012.2
20260506193442 60 331 6.0 12.0 0.00 0.43 0.43 51 1012.0
20260506192936 60 345 5.0 10.0 0.00 0.43 0.43 46 1012.2
20260506192436 60 344 6.0 10.0 0.00 0.43 0.43 46 1012.4
20260506191935 59 320 5.0 10.0 0.00 0.43 0.43 47 1012.4
20260506191436 59 355 5.0 10.0 0.00 0.43 0.43 45 1012.2
20260506190935 59 319 5.0 9.0 0.00 0.43 0.43 43 1012.0
20260506190920 59 355 6.0 13.0 0.00 0.43 0.43 45 1012.8
20260506190531 59 349 6.0 13.0 0.00 0.43 0.43 44 1012.5
20260506185756 58 5 6.0 11.0 0.00 0.43 0.43 44 1012.4
20260506184936 58 313 6.0 12.0 0.00 0.43 0.43 43 1012.2
20260506184437 58 340 6.0 12.0 0.00 0.43 0.43 44 1012.4
20260506183936 58 344 6.0 14.0 0.00 0.43 0.43 44 1012.5
20260506183436 58 315 7.0 14.0 0.00 0.43 0.43 45 1012.5
20260506182938 59 27 7.0 13.0 0.00 0.43 0.43 44 1012.4
20260506182430 59 337 7.0 13.0 0.00 0.43 0.43 43 1012.7
20260506181929 59 323 6.0 12.0 0.00 0.43 0.43 39 1012.7
20260506181430 59 20 6.0 12.0 0.00 0.43 0.43 39 1012.5
20260506180930 59 5 5.0 11.0 0.00 0.43 0.43 38 1012.9
20260506180430 58 24 5.0 13.0 0.00 0.43 0.43 35 1012.9
20260506175930 58 315 6.0 13.0 0.00 0.43 0.43 33 1012.9
20260506175430 58 334 6.0 14.0 0.00 0.43 0.43 31 1012.8
20260506174929 58 330 6.0 14.0 0.00 0.43 0.43 31 1012.7
20260506174430 57 317 6.0 12.0 0.00 0.43 0.43 32 1012.5
20260506173932 56 348 5.0 10.0 0.00 0.43 0.43 32 1012.8
20260506173430 56 323 5.0 10.0 0.00 0.43 0.43 32 1012.9
20260506172928 56 326 5.0 10.0 0.00 0.43 0.43 32 1012.9
20260506172430 56 329 5.0 10.0 0.00 0.43 0.43 32 1012.9
20260506172242 56 5 5.0 10.0 0.00 0.43 0.43 32 1012.8
20260506171737 56 0 7.0 11.0 0.00 0.43 0.43 32 1012.5
20260506171255 56 39 6.0 12.0 0.00 0.43 0.43 31 1012.5
20260506170918 56 38 4.0 8.0 0.00 0.43 0.43 31 1012.7
20260506170526 56 15 4.0 12.0 0.00 0.43 0.43 31 1012.7
20260506165753 56 337 4.0 9.0 0.00 0.43 0.43 32 1012.5
20260506164929 56 30 3.0 9.0 0.00 0.43 0.43 32 1012.5
20260506164758 55 323 3.0 9.0 0.00 0.43 0.43 32 1012.7
20260506164252 55 0 3.0 9.0 0.00 0.43 0.43 33 1012.4
20260506163427 55 28 3.0 9.0 0.00 0.43 0.43 33 1012.3
20260506162929 55 317 3.0 9.0 0.00 0.43 0.43 33 1012.5
20260506162429 55 22 2.0 9.0 0.00 0.43 0.43 33 1012.3
20260506161929 55 337 3.0 9.0 0.00 0.43 0.43 34 1012.2
20260506161747 55 355 2.0 9.0 0.00 0.43 0.43 34 1011.8
20260506160938 55 14 1.0 0.0 0.00 0.43 0.43 34 1011.8
20260506160401 55 17 2.0 9.0 0.00 0.43 0.43 34 1011.4
20260506155901 54 34 4.0 9.0 0.00 0.43 0.43 34 1011.2
20260506155401 55 17 5.0 9.0 0.00 0.43 0.43 34 1011.3
20260506154902 55 349 4.0 12.0 0.00 0.43 0.43 34 1011.4
20260506154402 55 309 4.0 12.0 0.00 0.43 0.43 34 1011.5
20260506153902 55 355 4.0 10.0 0.00 0.43 0.43 34 1011.4
20260506153402 55 350 2.0 10.0 0.01 0.43 0.43 34 1011.3
20260506153216 55 5 3.0 9.0 0.01 0.43 0.43 34 1011.4
20260506152721 56 5 3.0 10.0 0.01 0.43 0.43 33 1011.4
20260506152221 56 329 3.0 10.0 0.01 0.43 0.43 33 1011.4
20260506151716 56 348 1.0 9.0 0.01 0.43 0.43 32 1011.6
20260506151223 56 335 0.0 9.0 0.01 0.43 0.43 32 1011.0
20260506150404 56 276 0.0 5.0 0.01 0.43 0.43 32 1010.4
20260506145901 56 306 1.0 9.0 0.00 0.42 0.43 33 1010.0
20260506145401 55 325 1.0 9.0 0.02 0.42 0.43 34 1009.9
20260506144900 55 64 4.0 9.0 0.02 0.42 0.43 35 1009.8
20260506144401 54 89 5.0 12.0 0.04 0.42 0.43 37 1009.6
20260506143900 54 71 2.0 12.0 0.11 0.42 0.43 38 1009.9
20260506143405 54 69 1.0 9.0 0.23 0.42 0.42 38 1010.1
20260506143219 54 341 3.0 9.0 0.34 0.42 0.42 39 1010.4
20260506142720 54 40 5.0 0.0 0.40 0.42 0.42 39 1010.5
20260506142028 55 41 5.0 14.0 0.45 0.42 0.44 40 1010.9
20260506141529 55 0 6.0 17.0 0.44 0.42 0.43 40 1011.3
20260506141026 55 0 8.0 17.0 0.43 0.42 0.43 41 1010.5
20260506140525 55 0 8.0 15.0 0.43 0.42 0.43 42 1010.4
20260506140026 56 5 8.0 16.0 0.42 0.42 0.42 43 1010.2
20260506135524 56 323 9.0 16.0 0.41 0.00 0.40 45 1011.1
20260506135023 56 329 8.0 15.0 0.40 0.00 0.40 47 1010.3
20260506134523 57 26 8.0 16.0 0.39 0.00 0.38 49 1011.6
20260506134023 57 313 10.0 18.0 0.33 0.00 0.31 52 1011.2
20260506133855 58 313 11.0 18.0 0.23 0.00 0.22 53 1010.5
20260506133357 59 281 10.0 19.0 0.10 0.00 0.10 55 1011.2
20260506132522 60 5 10.0 19.0 0.04 0.00 0.03 59 1009.1
20260506132020 60 5 10.0 18.0 0.00 0.00 0.00 63 1009.2
20260506131520 61 334 10.0 18.0 0.00 0.00 0.00 65 1008.8
20260506131344 61 15 9.0 18.0 0.00 0.00 0.00 67 1008.0
20260506130525 61 9 8.0 16.0 0.00 0.00 0.00 66 1007.8
20260506130338 62 23 8.0 16.0 0.00 0.00 0.00 65 1008.1
20260506125834 62 23 7.0 16.0 0.00 0.00 0.00 64 1009.1
20260506125020 62 341 6.0 11.0 0.00 0.00 0.00 64 1008.6
20260506124518 62 39 6.0 10.0 0.00 0.00 0.00 63 1008.3
20260506124019 63 338 6.0 10.0 0.00 0.00 0.00 63 1008.9
20260506123518 63 0 6.0 11.0 0.00 0.00 0.00 63 1008.3
20260506123017 63 346 6.0 11.0 0.00 0.00 0.00 63 1008.4
20260506122828 63 355 6.0 11.0 0.00 0.00 0.00 63 1008.4
20260506122017 63 12 5.0 10.0 0.00 0.00 0.00 64 1008.3
20260506121517 63 12 5.0 10.0 0.00 0.00 0.00 64 1008.1
20260506121024 64 22 5.0 10.0 0.00 0.00 0.00 64 1008.0
20260506120527 64 15 4.0 9.0 0.00 0.00 0.00 63 1008.1
20260506115948 64 337 4.0 9.0 0.00 0.00 0.00 62 1008.3
20260506115443 64 0 3.0 8.0 0.00 0.00 0.00 61 1008.2
20260506114939 64 348 3.0 8.0 0.00 0.00 0.00 62 1008.2
20260506114439 64 339 4.0 8.0 0.00 0.00 0.00 61 1008.1
20260506113940 65 25 4.0 8.0 0.00 0.00 0.00 61 1008.1
20260506113439 65 23 3.0 8.0 0.00 0.00 0.00 59 1008.0
20260506112940 65 338 2.0 8.0 0.00 0.00 0.00 57 1008.0
20260506112746 65 346 2.0 8.0 0.00 0.00 0.00 55 1007.8
20260506112243 65 0 3.0 8.0 0.00 0.00 0.00 54 1007.8
20260506111438 65 5 2.0 8.0 0.00 0.00 0.00 53 1007.8
20260506110937 65 333 0.0 5.0 0.00 0.00 0.00 51 1008.0
20260506110742 65 5 0.0 4.0 0.00 0.00 0.00 50 1008.0
20260506105938 66 347 1.0 6.0 0.00 0.00 0.00 50 1008.1
20260506105439 66 355 2.0 8.0 0.00 0.00 0.00 50 1008.1
20260506105253 66 9 1.0 8.0 0.00 0.00 0.00 49 1008.0
20260506104436 66 326 1.0 5.0 0.00 0.00 0.00 47 1008.0
20260506103936 66 355 2.0 8.0 0.00 0.00 0.00 46 1008.0
20260506103433 66 22 2.0 8.0 0.00 0.00 0.00 47 1008.0
20260506102927 67 355 2.0 8.0 0.00 0.00 0.00 45 1008.0
20260506102428 67 0 1.0 8.0 0.00 0.00 0.00 43 1008.0
20260506102239 67 0 1.0 8.0 0.00 0.00 0.00 40 1007.9
20260506101742 67 9 2.0 8.0 0.00 0.00 0.00 37 1007.9
20260506100927 68 326 1.0 6.0 0.00 0.00 0.00 33 1008.0
20260506100427 68 331 1.0 6.0 0.00 0.00 0.00 29 1007.7
20260506095926 69 329 1.0 6.0 0.00 0.00 0.00 26 1007.6
20260506095424 69 350 0.0 1.0 0.00 0.00 0.00 21 1007.6
20260506094923 70 322 0.0 1.0 0.00 0.00 0.00 19 1007.6
20260506094830 70 170 0.0 0.0 0.00 0.00 0.00 19 1007.4
20260506094508 70 170 0.0 0.0 0.00 0.00 0.00 19 1007.5
20260506093721 70 170 0.0 0.0 0.00 0.00 0.00 19 1007.3
20260506092922 70 170 0.0 0.0 0.00 0.00 0.00 19 1007.3
20260506092422 70 170 0.0 0.0 0.00 0.00 0.00 19 1007.3
20260506091926 70 170 0.0 0.0 0.00 0.00 0.00 19 1007.3
20260506091328 70 170 0.0 1.0 0.00 0.00 0.00 19 1007.2
20260506090818 70 170 0.0 0.0 0.00 0.00 0.00 20 1007.2
20260506090312 70 170 0.0 0.0 0.00 0.00 0.00 20 1007.1
20260506085810 70 170 0.0 0.0 0.00 0.00 0.00 20 1007.1
20260506085622 70 170 0.0 1.0 0.00 0.00 0.00 20 1007.1
20260506085117 70 170 0.0 1.0 0.00 0.00 0.00 20 1007.2
20260506084620 70 170 0.0 0.0 0.00 0.00 0.00 20 1007.2